Content
SEND FEEDBACK

Daily
Averages
Monthly
Summary
Norway

GJESVAER, NORWAY


Home > Europe > Norway
Elevation: 20 feet     Latitude: 71 01N     Longitude: 025 24E

WEATHER
 
SELECT A DAY
Number of Records: 69,734;   Date Range: 7/1/96 - 9/20/14
 
SHARE

PRINT THIS DATA

[ ← Previous Day ]
WEATHER ALMANAC - JANUARY 23, 2013
[ Next Day → ]
[ °C ]   °F
Weather ElementAverageHighLow
Temperature31 °F32 °F (9:20 am)28.4 °F (6:20 am)
Dewpoint28.2 °F30.2 °F (9:20 am)24.8 °F (11:50 pm)
Humidity89.7 %100 % (7:50 am)75 % (11:50 pm)
Barometer29.47 in29.65 in (10:50 pm)29.27 in (6:50 am)
Wind Speed25.5 mph36.8 mph (6:20 am)
Wind Gust51.8 mph (6:20 am)
Weather ElementAverage
Visibility4.5 mi
Wind DirectionESE (114.2 °)

Weather ElementTotal
Precipitation---
Heating Degree Days34.8 (Base 65)
Averaged from 19 records on January 23, 2013
WEATHER CONDITIONS BREAKOUT
WIND DIRECTION BREAKOUT
WEATHER BY HOUR - JANUARY 23, 2013
[ °C ]   °F
Local TimeTemperatureDewpointHumidityBarometerVisibilityWind DirectionWind SpeedGust SpeedPrecipitationEventsConditions
6:20 AM28.4 °F26.6 °F93 %29.30 in0.1 miNW (310°)36.8 mph51.8 mphSnowHeavy Snow Showers
6:50 AM30.2 °F28.4 °F93 %29.27 in5.0 miNorth (360°)23.0 mphSnowLight Snow Showers
7:50 AM28.4 °F28.4 °F100 %29.30 in6.2 miNorth (360°)21.9 mphMostly Cloudy
9:20 AM32.0 °F30.2 °F93 %29.30 in6.2 miNorth (360°)33.4 mphScattered Clouds
11:50 AM32.0 °F30.2 °F93 %29.39 in6.2 miNorth (10°)34.5 mphScattered Clouds
12:20 PM30.2 °F28.4 °F93 %29.39 in1.9 miNNE (20°)26.5 mphSnowLight Snow Showers
12:50 PM30.2 °F30.2 °F100 %29.39 in0.9 miNNE (30°)26.5 mphSnowSnow
1:50 PM32.0 °F30.2 °F93 %29.42 in6.2 miNE (50°)25.3 mphSnowLight Snow
2:50 PM32.0 °F30.2 °F93 %29.44 in5.0 miNNE (30°)33.4 mphSnowLight Snow
4:50 PM32.0 °F28.4 °F87 %29.47 in6.2 miNNE (30°)15.0 mphSnowLight Snow Showers
5:50 PM30.2 °F28.4 °F93 %29.50 in6.2 miNE (40°)10.4 mphSnowLight Snow Showers
6:50 PM30.2 °F28.4 °F93 %29.53 in1.1 miNE (40°)18.4 mph31.1 mphSnowSnow Showers
7:50 PM30.2 °F28.4 °F93 %29.56 in2.2 miNNE (20°)20.7 mph32.2 mph
8:50 PM32.0 °F28.4 °F87 %29.59 in6.2 miNE (40°)28.8 mphSnowLight Snow Showers
9:20 PM32.0 °F26.6 °F80 %29.59 in6.2 miNE (40°)26.5 mphScattered Clouds
9:50 PM32.0 °F26.6 °F80 %29.59 in6.2 miNNE (20°)25.3 mphMostly Cloudy
10:50 PM30.2 °F26.6 °F86 %29.65 in1.6 miNorth (360°)29.9 mphSnowLight Snow Showers
11:20 PM32.0 °F26.6 °F80 %29.62 in6.2 miNNE (30°)24.2 mphScattered Clouds
11:50 PM32.0 °F24.8 °F75 %29.62 in6.2 miNNE (20°)24.2 mphScattered Clouds
Hourly data recorded from ENHV, located miles away from Gjesvaer, Norway







STORIES FROM OUR PARTNERS